Location: Kawakawa
(35.3830°S, 174.0670°E)
Time: 09:57:16
(UTC+13:00)

Explorer 7 - Pass Details

Date: 14 December 2019
Orbit: 485 x 679 km, 50.3° (Epoch: 25 January)

Event Time Altitude Azimuth Distance (km) Brightness Sun altitude
Rises 03:10:08 0° 320° (NW) 2,680 - -25.7°
Reaches altitude 10° 03:12:25 10° 323° (NW) 1,766 - -25.5°
Maximum altitude 03:16:21 61° 43° (NE) 587 - -25.1°
Exits shadow 03:17:23 42° 101° (E) 731 7.6 -25.0°
Drops below altitude 10° 03:20:10 10° 123° (ESE) 1,710 10.2 -24.7°
Sets 03:22:20 0° 126° (SE) 2,586 11.4 -24.5°
